Retour au catalogue

CZ-6A DEB

ActifPO
NORAD 61406·DEBRIS·🇨🇳 China

Lancé Aug 6, 2024 depuis Taiyuan Satellite Launch Center

Loading…

Prochains Passages (prochaines 24 heures)

TLE

FraisSource: Space-Track

Époque: Sep 14, 2026, 00:16 UTC

1 61406U 24140XX  26257.01165421  .00000500  00000-0  29340-3 0  9996
2 61406  88.9930 267.0104 0128223 343.3469  16.3518 14.02798702102845

Suivez CZ-6A DEB en temps réel avec AllMySat

Download on the App Store